Wetbulb
53.60 53.45 53.12 53.15 52.91 52.76 52.56 52.45 52.44 52.35 52.56 52.42 52.39 52.09 51.83 51.64 51.65 51.62 51.94 52.20 52.41 53.12 53.21 53.32 53.82 56.03 52.26 45.28 43.15 50.17 57.64 56.12 58.81 56.12 53.33 51.41 47.72 46.16 43.61 44.77 44.69 43.87 43.28 45.78 46.39 45.85 46.88
52.93 52.97 52.36 52.68 52.65 52.61 52.36 52.28 51.89 51.83 52.04 52.15 51.87 51.53 51.27 51.38 51.53 51.60 51.62 51.77 52.00 52.08 52.09 52.83 52.71 54.05 49.43 39.44 48.36 50.74 52.03 51.21 56.90 55.21 53.11 52.20 49.09 48.69 46.17 45.31 43.37 44.03 44.98 45.02 45.66 46.24 46.46
52.57 52.26 52.15 52.05 52.02 51.87 51.80 51.61 51.43 51.51 51.59 51.74 51.62 51.01 50.84 50.81 50.92 51.08 51.27 51.46 51.47 51.46 51.86 52.01 52.23 49.73 46.61 43.15 49.16 50.23 50.00 51.00 55.29 55.70 52.20 53.63 52.36 48.56 47.13 43.75 45.97 45.71 41.79 42.23 43.70 45.33 45.06
51.63 51.68 51.68 51.64 51.64 51.55 51.46 51.31 51.34 51.34 51.39 51.50 51.07 50.63 50.22 50.11 50.12 50.20 50.45 50.48 50.91 51.86 52.55 53.18 52.27 47.57 41.43 50.51 52.41 50.47 50.42 48.13 52.16 56.23 54.94 54.48 53.86 49.92 47.00 47.85 45.63 41.02 39.99 36.67 41.08 44.23 45.73
51.48 51.38 51.16 51.12 51.16 51.31 51.00 50.84 50.83 50.68 50.75 50.64 50.22 50.05 49.85 49.70 49.73 49.61 50.45 50.99 50.99 51.91 53.90 53.30 46.91 45.13 39.22 49.96 46.57 49.17 49.09 45.83 47.52 53.57 53.74 55.07 51.14 47.67 46.79 41.74 38.71 39.34 34.24 36.15 37.33 42.97 43.35
50.99 50.89 50.71 50.56 50.52 50.57 50.49 50.39 50.20 50.11 50.40 50.49 50.02 49.82 49.81 49.59 49.38 50.15 49.61 47.15 49.28 52.53 51.07 50.01 48.96 42.95 43.29 39.83 44.49 48.67 48.20 48.02 47.78 50.05 48.66 48.69 46.10 42.95 42.10 39.08 30.26 34.09 34.13 35.27 33.91 39.76 42.35
50.15 50.44 50.22 50.25 50.42 50.65 50.93 50.82 50.30 50.63 50.96 50.75 50.08 49.79 49.46 49.41 49.61 50.07 42.37 38.52 38.03 36.25 38.93 38.99 39.79 37.92 40.30 44.66 46.52 45.94 47.91 45.29 46.06 46.56 40.84 44.58 39.66 36.26 37.55 38.96 39.03 38.92 36.36 35.72 36.94 40.01 41.13
49.62 49.86 50.57 50.25 50.15 49.86 49.81 49.79 49.83 49.74 50.07 49.79 49.40 48.85 48.95 49.11 49.09 47.88 39.09 32.75 37.41 38.34 32.38 38.30 37.87 38.82 44.26 44.46 38.66 41.95 48.33 40.55 40.36 38.04 41.90 38.69 35.42 40.13 41.09 40.47 39.38 38.13 35.89 35.14 38.07 39.04 40.48
50.24 49.72 50.05 49.75 49.77 49.99 50.24 50.35 50.63 50.62 50.68 49.92 49.12 48.75 48.75 48.73 48.31 39.98 36.70 35.64 41.53 41.43 34.56 35.59 39.36 38.80 39.60 42.08 38.45 38.87 44.91 40.93 38.06 37.31 38.75 34.63 34.15 40.78 39.21 37.91 35.68 36.10 35.27 34.92 34.67 36.74 38.30
49.35 49.54 49.51 49.75 50.34 50.68 49.74 50.08 50.19 50.23 49.88 49.34 48.93 48.63 48.56 48.28 40.17 37.44 34.97 39.84 40.95 40.86 28.58 29.51 34.34 39.39 41.53 42.04 36.52 43.69 44.51 41.98 39.18 35.32 37.14 36.60 40.07 37.11 36.76 36.05 36.58 31.40 36.69 37.26 35.44 33.80 28.77
49.41 49.24 49.07 48.76 48.96 49.14 48.95 49.18 48.56 48.66 48.71 48.66 48.41 48.18 48.14 47.59 38.68 33.99 37.38 40.55 40.01 39.63 12.21 27.98 33.19 43.45 41.59 36.63 36.61 37.87 44.52 41.43 36.43 36.01 36.85 33.08 34.87 35.26 33.09 35.93 37.62 33.79 37.37 35.00 34.91 33.46 33.05
49.16 48.84 48.40 49.03 49.01 48.74 48.92 49.09 47.92 47.78 47.96 47.88 47.76 47.64 47.64 41.60 36.46 37.60 39.70 39.30 37.25 25.34 11.91 25.96 34.03 34.86 34.87 36.62 36.61 38.61 38.31 40.44 39.85 37.08 36.56 35.15 37.20 36.56 36.00 37.17 37.33 37.42 34.70 33.66 35.35 33.55 26.15
48.38 48.39 49.42 49.45 48.64 48.29 48.37 48.02 47.38 47.51 47.48 47.44 47.24 47.24 45.15 41.15 32.37 37.72 39.27 35.46 21.63 15.82 26.57 25.79 26.62 30.44 29.86 30.61 34.21 34.63 33.52 32.86 31.39 28.32 28.40 33.76 33.23 34.60 36.87 32.71 35.80 35.62 29.88 22.95 21.65 22.76 21.24
48.10 48.56 48.88 48.55 48.06 48.00 47.77 47.44 47.33 47.16 46.95 46.66 46.74 46.48 42.85 40.12 37.91 37.40 34.61 25.58 13.83 21.95 21.55 26.26 25.79 27.18 26.95 31.32 32.08 33.35 31.89 30.36 33.72 32.90 26.96 25.74 23.79 32.10 35.03 33.94 30.15 32.54 31.83 21.45 14.42 17.99 19.74
48.22 48.20 48.10 47.85 47.83 47.46 47.29 47.16 46.93 46.53 46.37 46.25 45.86 37.84 35.75 35.80 39.10 35.84 25.54 7.71 18.14 22.14 23.79 22.63 23.39 22.46 24.03 28.03 29.04 31.17 30.16 30.22 32.66 34.27 28.06 25.36 25.68 31.45 34.66 36.26 35.22 30.85 29.17 33.65 26.16 26.77 22.83
47.47 47.58 47.75 47.57 47.26 46.94 46.83 46.67 46.50 46.30 46.07 46.00 35.81 32.23 31.96 37.55 36.05 31.96 19.19 17.77 20.39 25.36 25.96 24.89 17.24 22.16 18.23 21.05 21.49 23.16 27.82 27.14 26.56 32.44 35.65 30.80 25.12 29.72 32.35 35.57 36.02 33.81 35.17 27.24 28.30 19.56 18.99
47.04 47.02 46.93 46.82 46.57 46.19 46.15 46.16 46.09 45.91 45.78 44.95 31.27 27.76 33.19 36.21 34.49 26.29 11.45 15.02 20.94 27.81 27.68 22.76 20.67 20.35 21.15 19.55 21.10 22.10 25.09 25.57 25.68 24.73 28.88 33.14 30.23 25.83 30.80 29.15 28.79 31.27 30.08 31.80 30.51 26.49 21.20
46.24 46.40 46.28 45.96 45.73 45.76 45.64 45.71 45.83 45.61 45.25 39.77 32.78 23.54 33.16 33.99 21.75 20.73 19.51 22.52 27.90 24.50 27.67 25.07 25.47 24.03 21.04 20.70 17.39 20.67 20.58 22.33 29.55 25.86 22.79 30.19 32.07 25.83 25.39 30.91 34.72 34.16 31.18 32.01 27.25 26.06 27.25
45.51 45.62 45.70 45.90 45.60 45.54 45.41 45.33 45.27 45.41 44.69 39.26 30.98 28.04 33.72 31.56 12.75 15.60 21.25 23.84 25.35 23.61 23.75 23.75 22.10 24.89 25.22 21.18 15.21 19.42 20.76 27.63 28.28 25.38 22.58 27.05 25.59 23.25 22.23 27.17 30.68 30.27 33.26 34.03 33.11 31.55 27.18
45.25 45.13 45.54 45.09 45.25 45.18 45.06 45.01 44.84 44.92 44.73 37.21 32.23 21.20 24.43 26.21 24.39 12.35 10.90 19.83 20.53 26.17 24.28 24.88 24.04 23.98 21.22 19.49 22.42 17.41 18.71 24.25 26.47 26.42 32.45 30.62 27.23 23.95 19.95 23.78 28.21 26.04 30.11 33.78 33.37 28.07 27.09
45.07 45.20 45.32 44.94 45.00 44.54 44.64 44.43 44.37 44.48 44.34 36.76 32.13 24.12 24.61 16.99 19.51 21.71 21.17 20.52 19.75 19.69 24.23 24.33 21.68 22.22 14.80 15.20 17.86 17.36 19.84 20.59 24.31 27.61 27.94 25.90 18.80 21.57 20.81 23.89 26.50 27.95 29.06 31.55 30.89 32.07 28.31
45.71 45.62 45.44 45.21 44.88 44.30 44.33 44.20 43.93 44.10 43.73 35.73 29.13 27.24 28.19 23.00 24.54 21.55 21.72 19.11 20.53 22.05 20.62 19.30 20.18 20.82 20.66 18.08 18.63 16.38 19.00 18.78 17.28 23.77 21.76 25.48 15.91 19.44 18.05 25.90 28.19 25.11 29.01 30.09 31.72 32.24 32.42
45.21 45.21 44.88 44.96 44.63 44.19 44.24 44.11 43.97 43.92 41.63 34.94 35.68 35.56 29.47 24.73 23.82 21.12 20.35 20.29 21.21 23.79 24.11 24.41 22.64 20.92 19.73 21.90 24.20 23.05 22.46 22.44 21.47 19.02 18.46 18.78 18.81 18.81 15.44 24.01 24.17 20.07 26.91 28.47 29.57 33.44 33.05
44.38 44.47 44.55 44.41 44.57 44.14 43.99 43.84 43.70 43.57 42.31 34.65 36.12 34.22 27.68 20.70 22.76 22.02 23.09 23.18 21.98 23.40 22.21 23.84 24.36 22.36 26.24 27.17 25.21 23.39 21.18 21.35 21.35 20.86 22.45 17.60 18.05 18.91 14.89 20.86 12.51 25.40 31.97 33.04 30.96 33.07 34.32
44.06 43.95 43.83 43.66 43.60 43.75 43.57 43.48 43.46 43.47 43.27 35.09 35.52 34.52 29.38 22.19 23.84 22.70 22.42 22.16 22.72 23.48 22.68 23.23 25.13 28.19 29.03 22.16 17.13 14.86 14.27 15.79 17.43 19.42 19.48 21.46 17.76 14.45 12.75 17.26 20.45 24.46 29.31 28.09 28.32 29.39 34.62
43.89 43.89 43.66 43.48 43.66 43.63 43.43 43.26 43.20 42.97 43.22 36.78 34.29 37.52 32.26 24.85 20.59 25.27 21.34 21.88 16.72 12.94 17.93 23.10 26.89 27.49 25.22 21.22 17.22 8.19 7.62 11.44 11.24 16.99 23.17 20.69 21.16 15.37 16.24 14.36 14.94 23.96 29.71 30.05 31.38 25.63 33.21
43.97 43.88 43.90 43.75 43.61 43.36 43.18 43.22 43.16 42.89 42.73 38.72 34.83 37.72 33.64 25.55 24.82 23.15 17.60 17.79 23.08 16.65 18.23 16.89 17.84 20.97 24.28 17.48 13.63 11.50 10.34 15.94 7.86 12.29 16.53 16.22 16.57 12.64 13.94 12.50 19.06 27.85 29.79 31.08 21.56 25.45 29.98
43.34 43.37 43.27 43.17 43.19 43.09 43.02 43.05 42.78 42.84 42.62 39.11 35.06 38.07 34.16 24.95 25.45 27.70 27.85 20.56 21.73 20.09 13.06 18.67 21.03 15.93 15.21 11.66 12.73 12.13 14.06 16.73 16.26 18.44 18.05 17.98 13.51 13.01 16.23 14.08 10.98 27.05 30.20 27.74 27.56 28.79 31.59
43.53 43.55 43.26 43.01 42.84 42.74 42.84 42.83 42.56 42.83 42.79 41.67 32.57 36.63 38.15 31.24 28.73 29.29 30.36 30.80 29.04 28.72 24.58 23.68 17.89 18.21 20.64 13.85 13.02 12.10 10.57 14.66 16.03 12.63 23.92 17.51 22.89 20.43 18.89 18.89 25.78 26.54 25.19 27.81 26.95 28.11 30.28
MSLP
1025.83 1025.83 1025.57 1025.37 1025.09 1024.87 1024.62 1024.34 1024.13 1023.83 1023.41 1022.93 1022.58 1022.20 1021.88 1021.38 1020.91 1020.45 1019.87 1019.29 1018.73 1018.17 1017.75 1017.38 1016.99 1016.84 1016.59 1016.17 1013.96 1011.73 1011.58 1011.94 1012.06 1012.41 1013.12 1013.79 1014.27 1014.66 1014.64 1014.91 1015.24 1014.85 1014.21 1013.66 1013.39 1013.33 1013.37
1025.98 1025.90 1025.75 1025.50 1025.29 1025.03 1024.70 1024.53 1024.29 1023.90 1023.48 1023.00 1022.51 1022.26 1021.86 1021.36 1020.81 1020.18 1019.45 1018.94 1018.44 1017.88 1017.44 1017.08 1016.84 1016.57 1016.19 1014.93 1012.64 1011.98 1011.82 1011.86 1011.96 1012.52 1012.65 1013.24 1013.66 1013.89 1014.08 1014.13 1014.57 1013.79 1013.65 1013.20 1013.07 1013.05 1013.00
1026.19 1026.06 1025.95 1025.62 1025.36 1025.17 1024.87 1024.54 1024.26 1023.91 1023.38 1022.98 1022.54 1022.13 1021.77 1021.28 1020.66 1019.94 1019.17 1018.40 1017.60 1017.08 1016.66 1016.29 1016.20 1016.38 1015.15 1012.41 1011.77 1011.83 1012.07 1012.03 1011.67 1011.73 1012.52 1012.68 1013.06 1013.73 1013.57 1013.76 1013.42 1013.40 1013.53 1013.20 1012.83 1012.57 1012.73
1026.49 1026.25 1025.99 1025.83 1025.52 1025.22 1024.98 1024.65 1024.28 1023.82 1023.42 1022.98 1022.60 1022.06 1021.59 1021.01 1020.34 1019.64 1018.75 1017.68 1016.48 1015.63 1015.14 1015.23 1015.53 1015.68 1013.06 1010.84 1010.95 1011.42 1011.20 1011.82 1011.75 1011.57 1011.74 1012.26 1012.69 1013.26 1013.24 1012.98 1012.85 1013.24 1013.34 1012.83 1011.73 1012.28 1012.20
1026.53 1026.34 1026.18 1025.92 1025.53 1025.35 1024.99 1024.72 1024.27 1023.75 1023.42 1022.99 1022.57 1022.07 1021.48 1020.76 1020.02 1019.15 1018.12 1016.58 1015.32 1014.54 1014.10 1014.28 1015.36 1015.24 1012.11 1010.74 1010.49 1009.69 1010.70 1011.14 1011.52 1011.52 1011.73 1011.99 1012.81 1012.94 1013.12 1013.16 1013.09 1012.65 1012.03 1011.85 1011.71 1011.51 1011.67
1026.74 1026.42 1026.17 1025.93 1025.72 1025.44 1025.16 1024.68 1024.21 1023.83 1023.35 1022.93 1022.47 1021.97 1021.39 1020.59 1019.71 1018.83 1017.66 1015.71 1014.14 1013.88 1013.99 1014.50 1014.41 1014.83 1012.06 1010.58 1009.98 1009.45 1009.56 1010.73 1011.15 1011.41 1011.97 1012.13 1012.31 1012.01 1011.96 1012.08 1011.03 1011.19 1011.78 1011.56 1011.28 1010.94 1011.29
1027.08 1026.65 1026.25 1026.00 1025.71 1025.42 1025.11 1024.70 1024.20 1023.82 1023.20 1022.65 1022.18 1021.73 1021.11 1020.38 1019.60 1018.69 1017.96 1016.22 1015.71 1014.97 1014.92 1014.10 1013.12 1011.90 1010.55 1009.70 1009.16 1009.22 1009.57 1010.56 1011.00 1011.02 1010.75 1011.26 1011.19 1009.72 1010.42 1010.64 1010.85 1011.18 1011.37 1011.16 1011.04 1010.87 1010.92
1027.15 1026.68 1026.52 1026.17 1025.78 1025.41 1025.05 1024.71 1024.15 1023.58 1023.01 1022.55 1022.06 1021.62 1021.03 1020.38 1019.63 1018.93 1018.94 1018.68 1018.81 1018.68 1014.91 1013.13 1012.39 1011.04 1009.60 1009.76 1009.56 1009.02 1009.32 1010.30 1010.55 1009.69 1010.35 1010.77 1008.71 1009.53 1009.97 1010.43 1010.76 1010.98 1010.91 1010.96 1011.08 1010.80 1010.96
1027.23 1026.89 1026.54 1026.16 1025.68 1025.29 1024.83 1024.43 1024.05 1023.47 1022.93 1022.54 1022.15 1021.52 1020.95 1020.31 1019.67 1019.46 1019.52 1019.09 1018.75 1018.87 1016.57 1010.97 1010.41 1009.72 1009.12 1009.11 1008.35 1008.68 1009.26 1009.08 1009.29 1009.34 1009.04 1008.81 1008.50 1009.22 1009.49 1009.75 1010.23 1010.38 1010.41 1010.97 1011.33 1011.09 1010.91
1027.28 1026.96 1026.54 1026.03 1025.60 1025.10 1024.80 1024.40 1024.08 1023.65 1023.13 1022.67 1022.22 1021.55 1020.82 1020.24 1019.81 1020.00 1019.40 1018.70 1018.65 1018.62 1017.05 1011.40 1009.46 1008.18 1007.85 1008.40 1008.15 1006.99 1007.79 1008.21 1008.57 1008.54 1009.09 1008.74 1008.48 1008.94 1009.22 1008.93 1009.90 1009.96 1010.46 1010.69 1011.00 1011.28 1010.64
1027.27 1026.75 1026.47 1025.99 1025.58 1025.09 1024.69 1024.29 1023.82 1023.37 1022.90 1022.51 1022.00 1021.59 1020.88 1020.29 1020.48 1020.13 1019.25 1018.48 1018.12 1018.26 1016.47 1010.58 1008.70 1007.82 1007.75 1008.19 1007.58 1006.85 1007.04 1007.89 1007.41 1007.80 1008.67 1007.44 1008.02 1008.63 1008.67 1008.47 1009.62 1009.39 1010.25 1010.56 1010.82 1010.65 1010.67
1027.20 1026.76 1026.17 1025.81 1025.37 1024.97 1024.66 1024.21 1023.71 1023.22 1022.71 1022.35 1021.92 1021.33 1020.40 1020.36 1020.34 1019.55 1018.86 1018.33 1018.25 1017.90 1014.33 1010.86 1009.20 1008.85 1009.27 1008.75 1007.95 1007.54 1007.57 1007.73 1007.55 1007.92 1007.85 1007.81 1008.02 1008.29 1007.95 1008.93 1009.38 1009.68 1010.43 1010.52 1010.54 1010.48 1009.13
1027.17 1026.65 1026.16 1025.79 1025.43 1025.04 1024.64 1024.12 1023.60 1023.07 1022.60 1022.14 1021.82 1021.22 1020.15 1020.26 1020.20 1019.14 1018.76 1018.71 1018.74 1016.60 1013.77 1013.06 1012.13 1011.27 1010.41 1009.44 1008.26 1007.90 1008.04 1008.19 1007.74 1008.14 1007.70 1008.15 1007.95 1007.97 1007.85 1008.71 1009.08 1009.69 1010.27 1010.55 1010.41 1009.69 1007.27
1026.92 1026.49 1026.03 1025.65 1025.27 1024.89 1024.32 1023.89 1023.43 1022.92 1022.40 1021.89 1021.54 1020.72 1019.79 1019.62 1019.54 1019.49 1019.43 1019.43 1018.89 1016.27 1016.20 1015.42 1014.31 1012.00 1010.96 1009.97 1008.75 1008.15 1008.26 1008.24 1008.20 1007.76 1007.64 1007.72 1007.67 1007.31 1007.18 1006.92 1007.86 1008.74 1009.31 1009.29 1009.15 1008.37 1007.14
1026.77 1026.33 1025.88 1025.42 1025.08 1024.69 1024.26 1023.82 1023.24 1022.63 1022.23 1021.80 1021.24 1020.85 1020.51 1020.01 1019.57 1019.78 1020.28 1020.53 1018.89 1018.40 1018.31 1017.06 1015.08 1013.23 1011.94 1011.36 1011.09 1009.94 1008.61 1008.12 1007.73 1007.89 1007.86 1007.49 1006.87 1005.89 1005.73 1006.12 1006.94 1007.78 1007.96 1007.88 1008.48 1008.04 1007.44
1026.79 1026.37 1025.84 1025.46 1025.09 1024.69 1024.33 1023.88 1023.28 1022.59 1022.04 1021.71 1021.71 1021.29 1020.52 1019.90 1019.84 1020.15 1021.04 1020.52 1019.58 1019.10 1018.44 1017.34 1016.82 1015.86 1014.80 1013.88 1012.83 1012.21 1010.30 1010.52 1009.85 1009.37 1007.86 1007.29 1006.93 1005.77 1005.17 1005.72 1005.99 1005.83 1006.74 1008.00 1008.32 1007.61 1006.60
1026.60 1026.14 1025.64 1025.28 1025.01 1024.64 1024.27 1023.69 1023.11 1022.57 1022.03 1021.69 1021.90 1021.58 1020.13 1019.76 1019.90 1020.75 1021.31 1020.96 1020.02 1019.09 1018.76 1018.20 1017.18 1016.51 1015.90 1015.51 1014.98 1013.80 1012.20 1012.16 1011.84 1010.90 1009.37 1007.75 1007.15 1006.18 1005.47 1005.20 1005.22 1005.91 1005.84 1006.26 1006.76 1006.48 1005.40
1026.53 1026.09 1025.62 1025.19 1024.84 1024.44 1024.02 1023.45 1022.85 1022.33 1022.01 1022.02 1022.57 1022.04 1020.06 1019.61 1020.61 1021.47 1021.54 1020.95 1020.17 1019.18 1018.42 1018.12 1017.54 1017.03 1016.66 1016.42 1015.57 1014.74 1014.36 1014.23 1013.54 1013.00 1011.33 1009.50 1007.04 1006.24 1005.17 1004.44 1004.14 1004.05 1004.38 1005.24 1005.39 1005.11 1004.82
1026.38 1025.92 1025.50 1024.99 1024.75 1024.26 1023.94 1023.46 1022.84 1022.38 1022.15 1022.71 1022.61 1021.97 1020.55 1020.24 1021.14 1021.58 1021.19 1020.80 1020.15 1019.25 1018.76 1018.33 1017.88 1017.34 1017.09 1016.80 1016.54 1015.44 1014.97 1014.23 1013.99 1012.98 1012.31 1010.63 1008.35 1006.63 1005.98 1005.33 1004.61 1004.32 1004.24 1004.53 1004.71 1004.76 1003.59
1026.24 1025.79 1025.34 1024.95 1024.50 1024.12 1023.66 1023.12 1022.72 1022.21 1021.87 1022.44 1022.70 1022.28 1021.59 1021.17 1021.39 1021.65 1021.47 1020.56 1019.81 1018.97 1018.71 1018.30 1017.93 1017.60 1017.50 1017.21 1016.85 1015.99 1015.11 1014.87 1014.73 1013.57 1012.59 1011.66 1009.71 1008.62 1007.71 1006.40 1005.76 1004.30 1003.89 1004.32 1004.12 1003.66 1002.99
1025.96 1025.58 1025.20 1024.83 1024.43 1024.00 1023.48 1022.90 1022.51 1022.17 1021.78 1022.13 1022.34 1021.92 1021.76 1021.69 1021.45 1021.50 1021.40 1020.73 1019.87 1019.23 1018.61 1018.31 1017.97 1017.98 1018.20 1017.79 1017.30 1016.39 1015.65 1014.11 1014.23 1013.63 1013.02 1012.72 1011.72 1010.15 1008.57 1007.11 1005.60 1004.73 1003.63 1002.92 1002.94 1002.17 1002.47
1025.68 1025.23 1024.86 1024.70 1024.12 1023.75 1023.23 1022.84 1022.40 1021.82 1021.63 1022.13 1022.31 1022.13 1021.53 1021.36 1021.18 1021.16 1020.90 1020.34 1019.61 1018.80 1018.79 1018.34 1018.12 1017.79 1018.01 1017.94 1017.58 1017.03 1016.69 1015.88 1015.00 1013.82 1014.33 1013.92 1012.32 1010.79 1008.52 1006.82 1005.56 1004.38 1003.14 1002.37 1001.87 1001.83 1001.55
1025.48 1025.14 1024.82 1024.42 1023.95 1023.53 1022.99 1022.57 1022.23 1021.70 1021.71 1022.16 1022.22 1021.87 1021.90 1020.82 1020.72 1020.81 1020.15 1019.58 1019.10 1018.86 1018.17 1017.86 1017.81 1017.75 1017.43 1017.18 1017.07 1016.77 1016.53 1016.09 1015.15 1014.77 1014.14 1013.97 1012.89 1011.68 1009.31 1007.28 1005.52 1003.75 1002.03 1001.61 1001.30 1000.94 1000.50
1025.50 1025.11 1024.80 1024.38 1023.83 1023.33 1022.80 1022.35 1021.77 1021.32 1021.12 1021.72 1021.48 1021.22 1020.70 1020.18 1020.20 1019.77 1019.51 1019.25 1019.09 1018.80 1018.42 1017.75 1017.57 1017.47 1016.62 1016.69 1016.67 1016.16 1015.85 1015.16 1014.45 1012.78 1013.31 1013.43 1013.26 1012.50 1010.03 1007.97 1005.83 1002.50 1000.97 1000.19 999.92 999.50 999.92
1025.42 1024.91 1024.44 1023.94 1023.45 1022.95 1022.50 1022.00 1021.40 1020.81 1020.66 1020.99 1020.86 1021.08 1020.40 1019.27 1018.92 1018.93 1019.02 1019.04 1018.77 1018.43 1018.18 1017.64 1016.74 1016.58 1016.49 1016.88 1016.89 1016.08 1015.34 1014.34 1013.00 1011.80 1011.24 1012.13 1012.94 1012.06 1010.36 1008.14 1005.42 1002.52 1000.81 1000.30 999.75 998.95 998.76
1025.30 1024.84 1024.28 1023.69 1023.03 1022.53 1022.04 1021.54 1020.88 1020.27 1019.87 1019.98 1020.16 1020.11 1020.44 1019.87 1018.71 1018.27 1018.48 1018.61 1018.87 1018.47 1018.09 1017.35 1016.55 1016.39 1016.70 1017.03 1017.14 1016.54 1015.65 1014.68 1013.13 1011.22 1010.46 1011.40 1012.24 1012.10 1010.29 1008.49 1005.46 1002.23 1001.29 1000.51 1000.03 999.90 999.49
1024.93 1024.49 1023.86 1023.24 1022.73 1022.12 1021.57 1021.04 1020.39 1019.75 1019.29 1019.28 1019.39 1019.26 1019.59 1019.35 1017.95 1018.37 1018.21 1018.18 1018.17 1018.38 1018.25 1017.70 1017.31 1017.00 1016.85 1017.21 1017.14 1016.51 1015.51 1014.81 1013.95 1012.29 1011.33 1011.73 1012.07 1011.29 1010.60 1008.75 1005.78 1002.62 1001.71 1000.99 1001.21 1001.53 1000.63
1024.72 1024.15 1023.43 1022.77 1022.16 1021.46 1020.83 1020.30 1019.75 1019.12 1018.78 1018.76 1018.57 1018.54 1018.84 1018.28 1017.41 1017.55 1017.21 1017.44 1017.68 1017.61 1017.72 1017.41 1017.67 1017.36 1017.51 1017.50 1017.16 1016.29 1015.42 1014.66 1013.92 1012.61 1011.56 1011.08 1011.13 1011.04 1010.82 1008.93 1006.83 1003.28 1002.35 1002.77 1002.40 1001.37 1001.08
1024.23 1023.70 1022.95 1022.27 1021.60 1020.88 1020.11 1019.53 1018.93 1018.38 1017.94 1017.69 1017.94 1017.92 1017.98 1018.16 1017.04 1016.41 1016.14 1016.05 1015.96 1015.63 1016.46 1016.63 1016.66 1016.54 1016.48 1016.69 1016.77 1016.18 1015.80 1015.25 1013.83 1012.39 1011.27 1010.91 1010.72 1010.16 1009.34 1007.65 1005.05 1004.71 1004.35 1003.67 1003.35 1002.58 1001.41
Wind_Speed
13 14 15 15 16 16 16 17 19 20 20 20 20 21 21 22 24 24 24 24 24 23 22 20 19 19 6 6 15 8 13 9 11 9 12 9 7 7 10 6 5 8 7 5 12 12 6
12 14 14 14 15 15 16 17 18 19 20 20 21 21 22 23 24 25 25 26 26 25 24 22 18 18 6 20 5 9 8 4 9 11 10 11 8 7 4 7 12 5 12 16 8 8 6
13 14 14 14 15 15 16 16 17 19 20 21 22 23 24 25 27 29 29 30 30 30 27 22 19 12 14 21 6 3 4 3 6 14 10 10 7 8 6 5 9 11 12 7 8 9 6
12 12 13 14 15 16 18 18 18 19 20 21 23 25 26 27 27 29 31 35 35 31 26 22 16 10 16 6 20 27 23 15 7 7 14 8 9 10 4 5 2 4 4 13 7 7 6
12 13 14 15 16 18 18 20 20 20 21 22 23 24 26 27 29 30 33 34 32 24 14 10 7 7 12 5 10 16 15 13 7 4 6 6 5 7 4 11 9 6 11 16 11 9 7
13 13 14 16 17 17 18 19 19 20 21 22 22 24 26 28 29 31 30 34 20 7 4 5 6 3 6 6 5 4 8 15 5 8 4 10 6 8 8 8 18 13 8 7 10 6 10
13 14 15 16 17 18 20 21 21 22 22 22 23 24 26 28 30 32 15 8 8 6 6 7 7 10 5 6 4 5 5 11 5 7 16 11 12 18 20 22 14 10 10 8 7 6 9
14 15 16 16 18 19 20 21 20 21 22 22 23 25 25 27 30 21 7 5 8 7 20 20 24 28 28 4 6 2 11 9 13 22 21 7 24 17 13 8 19 20 16 13 11 8 8
15 16 16 18 18 19 19 21 22 23 22 21 22 25 25 25 25 6 9 3 4 13 8 10 11 10 9 18 23 17 11 6 14 23 21 23 4 19 13 16 16 14 14 6 5 7 8
15 17 18 19 21 20 22 23 22 24 24 22 22 24 25 27 6 5 7 4 6 5 8 9 6 7 5 5 7 17 16 10 8 24 20 17 21 7 19 23 15 19 14 18 14 10 6
16 16 16 19 20 20 19 21 23 24 24 24 22 23 24 20 7 3 7 9 6 2 7 7 3 1 1 6 6 3 22 10 15 11 14 11 13 22 13 20 18 15 9 11 12 15 9
17 19 19 16 19 20 22 22 23 25 24 23 22 22 26 5 2 7 9 9 1 4 12 7 3 6 6 5 5 3 3 4 4 6 8 18 6 14 25 13 12 3 6 3 5 9 14
18 18 20 18 18 20 21 22 23 24 24 25 23 22 21 1 5 5 7 4 3 7 5 7 12 13 17 13 6 6 5 15 15 16 19 6 13 4 6 12 11 11 6 5 5 7 11
17 18 18 17 19 19 20 22 23 23 24 23 21 22 9 4 3 5 4 4 6 2 7 14 15 21 8 7 6 5 7 9 18 9 2 16 11 16 8 21 10 13 17 5 7 6 5
17 18 18 19 19 19 21 22 22 23 24 22 16 5 4 4 3 2 6 3 5 7 6 11 19 6 7 15 9 9 8 10 11 20 7 6 10 2 11 12 20 7 16 17 6 2 2
17 18 18 19 19 20 21 21 22 23 22 21 2 4 4 4 4 4 5 6 4 1 6 7 6 9 12 15 15 18 6 9 13 12 13 4 4 7 2 7 14 14 8 9 9 7 11
18 18 18 19 20 20 21 22 22 21 22 13 3 4 3 5 3 4 3 5 4 5 3 4 7 6 5 7 9 8 6 6 12 20 18 5 6 2 7 8 13 10 15 8 4 9 5
17 18 19 19 19 20 20 20 21 21 20 5 2 4 2 3 4 1 2 3 4 6 3 7 5 3 4 6 5 4 6 7 12 15 12 8 4 8 9 3 13 20 21 19 7 6 10
17 18 19 18 21 20 21 22 20 22 18 2 3 4 3 4 0 2 4 4 4 4 2 5 5 5 5 6 6 7 5 7 9 15 10 9 5 2 4 2 1 7 16 18 17 4 6
18 18 20 20 21 21 21 20 20 20 17 3 3 3 4 3 1 6 1 6 4 2 8 5 5 4 5 7 4 10 12 8 16 13 9 13 6 9 7 4 7 6 14 13 15 11 8
17 18 19 19 19 21 20 20 20 19 17 3 2 4 4 4 3 4 2 3 9 7 2 3 4 3 1 4 7 7 17 19 10 5 5 3 6 13 19 17 14 12 11 20 22 20 10
20 18 19 19 18 19 20 19 17 19 15 0 3 3 1 2 1 4 5 3 9 8 4 5 7 7 7 5 7 15 14 12 6 5 7 3 5 7 10 14 10 20 13 13 22 21 19
20 18 18 19 19 20 20 21 21 19 10 1 1 2 3 6 2 2 4 5 7 3 6 10 10 6 10 13 10 8 7 12 17 16 13 4 3 4 6 9 15 12 8 14 9 19 18
18 18 18 18 20 20 20 20 20 19 14 3 3 4 3 7 5 6 7 6 12 12 13 13 9 9 7 3 6 7 8 15 17 25 13 9 8 4 7 9 4 8 15 14 21 16 14
18 17 18 19 19 19 20 21 20 21 20 3 2 2 4 6 5 6 9 9 7 7 10 11 16 11 7 3 4 6 5 9 10 20 13 19 10 4 4 3 10 16 8 2 10 18 18
19 20 20 20 21 21 22 23 23 21 22 4 3 3 2 5 4 6 3 5 4 4 6 5 4 1 3 2 2 3 5 4 7 12 6 13 13 6 1 4 4 6 4 6 3 10 11
22 22 23 23 22 23 23 24 25 23 22 10 4 4 3 4 6 5 4 5 3 1 4 4 5 2 3 2 3 4 6 3 4 7 2 6 6 12 9 5 8 9 4 8 2 4 9
22 23 24 24 24 24 25 26 25 24 23 12 6 6 4 3 5 8 6 4 2 3 4 4 3 3 2 1 2 3 2 1 4 10 7 1 6 6 6 6 10 3 1 3 3 4 4
24 25 24 25 25 26 25 26 25 26 26 20 5 2 4 3 7 6 9 12 14 19 8 5 5 4 4 1 1 1 3 5 4 4 4 2 4 3 5 6 3 5 5 6 5 6 5
Wind_Direction
31 31 26 22 20 15 10 8 7 2 360 355 353 350 346 340 338 333 328 322 316 312 307 304 299 308 312 229 247 278 291 322 193 148 183 173 171 186 222 195 192 232 242 242 243 255 234
36 31 24 20 22 17 13 10 3 359 357 354 352 349 343 340 334 329 323 318 313 306 302 298 295 296 250 248 257 257 272 282 194 178 179 170 197 199 271 221 197 216 233 245 247 246 226
38 31 26 20 15 11 8 5 360 355 354 351 349 344 343 338 335 331 324 317 308 301 293 280 278 279 259 239 209 212 20 285 215 188 188 198 167 183 194 251 228 237 263 275 240 230 227
33 27 23 13 9 2 0 358 355 350 350 349 349 346 342 339 336 331 326 318 305 296 284 268 257 255 255 218 238 249 263 273 268 226 202 191 186 219 208 320 277 195 211 252 225 178 227
19 21 12 8 1 358 356 355 349 346 347 349 347 345 341 339 337 333 326 317 310 306 292 254 227 215 263 348 239 240 218 224 205 196 219 155 136 222 158 224 261 197 247 229 260 207 191
12 11 8 2 357 354 351 349 345 343 340 341 342 342 339 338 336 334 329 312 296 311 61 148 243 215 266 237 234 221 197 194 181 155 196 205 202 210 202 198 225 221 238 236 233 212 208
1 358 1 355 350 348 348 343 344 340 335 340 341 339 335 336 336 336 346 336 9 348 7 238 218 239 267 222 239 202 156 167 155 188 202 195 214 214 212 217 244 273 234 231 250 233 222
350 353 355 350 343 344 340 337 335 331 331 336 336 334 335 336 337 339 6 10 69 297 293 228 249 256 249 283 290 297 140 157 192 210 197 199 227 212 222 229 221 238 246 255 275 259 237
354 345 346 342 340 335 333 332 332 331 331 333 332 332 335 336 331 358 332 259 342 344 268 290 217 241 237 204 242 229 186 173 200 205 201 214 228 212 234 219 229 242 242 212 229 339 304
344 342 344 340 336 344 343 338 338 339 335 331 332 329 333 336 355 332 301 275 330 313 276 276 245 262 172 160 252 222 197 174 200 216 210 230 227 186 212 229 215 240 234 245 249 250 251
335 340 340 336 337 335 335 335 342 336 333 333 333 330 329 336 287 309 268 304 308 226 281 271 264 307 158 174 310 356 199 225 209 182 197 204 189 216 223 227 219 244 227 214 231 246 255
342 338 334 328 336 339 344 339 341 336 336 332 330 327 319 343 297 240 293 293 126 237 243 301 355 12 8 297 288 16 136 252 155 217 220 225 196 206 227 216 205 218 238 326 248 236 244
340 328 336 340 341 338 339 336 340 336 335 335 335 323 314 325 257 299 317 337 287 217 313 353 342 334 314 287 256 181 184 191 207 209 227 196 222 218 155 211 201 199 138 236 231 223 250
328 340 338 340 341 340 337 338 336 339 333 336 330 314 287 258 290 318 350 21 259 255 15 332 330 309 273 340 259 238 175 201 219 235 281 218 230 199 189 208 177 196 208 198 208 202 261
335 338 338 341 338 338 339 336 336 335 334 337 331 302 312 296 342 54 63 31 302 20 346 325 324 323 335 344 343 305 223 207 204 206 212 184 235 205 218 196 185 180 211 220 318 194 266
345 343 344 344 344 341 339 334 335 336 338 340 335 327 283 300 5 69 80 251 279 275 302 312 301 343 337 353 355 337 322 18 350 337 241 219 249 214 241 145 217 199 144 181 212 235 245
347 345 346 350 347 345 337 338 337 336 337 345 41 346 261 328 78 61 169 235 287 284 231 303 310 275 300 351 320 302 308 48 29 344 321 210 208 211 116 183 190 202 215 202 173 227 227
344 343 345 344 341 338 336 335 338 337 345 38 356 292 311 20 20 50 268 251 285 286 287 266 258 293 340 311 292 329 325 326 7 3 333 322 263 210 201 189 208 196 207 210 231 183 227
344 342 340 342 340 344 343 336 343 337 349 330 291 270 337 77 166 295 298 278 253 274 329 308 283 334 304 315 316 334 342 344 7 342 341 328 338 191 118 348 209 209 225 216 225 273 198
340 340 340 345 343 343 343 338 340 337 345 91 285 305 309 44 82 146 222 276 256 308 298 252 283 315 335 322 261 303 298 333 328 310 8 352 304 351 343 330 334 219 205 222 215 235 235
332 336 335 335 339 341 344 345 342 339 347 98 241 239 201 277 262 237 167 259 290 298 267 321 290 255 258 280 311 291 321 321 339 350 8 61 299 339 312 303 287 273 266 203 217 231 229
335 331 333 326 335 337 338 343 342 341 352 357 295 289 230 287 313 224 256 237 263 282 200 271 253 287 292 257 271 296 298 309 275 283 351 331 296 315 293 303 334 324 263 230 223 227 235
346 342 335 330 335 337 338 339 337 337 8 270 234 235 244 271 231 200 224 229 255 292 259 251 268 288 283 280 278 262 251 270 268 271 286 288 280 326 275 320 329 303 240 230 222 220 217
351 348 341 334 335 335 336 334 336 336 345 192 239 251 245 269 220 224 254 257 276 278 275 283 274 271 274 340 290 270 247 245 252 263 219 216 237 264 275 296 255 250 309 237 213 227 221
346 344 340 337 333 333 336 333 334 333 332 200 255 254 308 266 224 259 242 256 282 272 274 271 275 264 288 313 315 304 288 277 248 235 222 205 194 251 247 303 300 306 314 333 185 245 226
338 335 332 331 331 331 329 327 325 332 330 308 227 186 245 292 264 240 243 231 250 246 316 254 285 300 137 206 255 260 284 307 294 321 359 182 193 208 279 258 272 250 353 329 167 281 4
336 333 331 330 327 325 324 322 324 325 322 318 258 177 198 269 244 177 198 209 169 120 238 299 285 330 154 226 244 258 261 228 292 296 133 146 185 213 233 267 278 267 320 324 82 246 317
333 330 330 328 326 325 325 324 324 327 324 321 281 192 204 219 272 209 219 189 291 193 195 250 287 334 46 191 234 250 264 201 288 289 289 224 161 188 212 224 259 319 132 200 292 276 263
330 328 327 326 326 324 325 320 327 322 316 316 285 197 211 222 255 221 239 227 216 243 250 200 216 170 221 139 284 58 325 289 253 272 298 247 340 305 208 226 291 354 341 325 287 268 307